Regional Weather Roundup
Issued by NWS

Home | Current Version | Previous Version | Graphics & Text | Print | Product List | Glossary On
Versions: 1 2 3 4 5 6 7 8 9 10 11 12 13 14 15 16 17 18 19 20 21 22 23 24 25 26 27 28 29 30 31 32 33 34 35 36 37 38 39 40 41 42 43 44 45 46 47 48 49 50
000
ASUS43 KOAX 160202
RWRNE

WEATHER ROUNDUP FOR NEBRASKA
NATIONAL WEATHER SERVICE OMAHA NE
900 PM CDT MON SEP 15 2014

NOTES: SATELLITE DATA IS BEING USED TO AUGMENT CLOUD COVER ABOVE
       12000 FEET.
       "FAIR" INDICATES FEW OR NO CLOUDS BELOW 12,000 FEET WITH NO
       SIGNIFICANT WEATHER AND/OR OBSTRUCTIONS TO VISIBILITY.

  * THESE STATIONS DO NOT REPORT WEATHER SUCH AS RAIN...SNOW OR FOG.

NEZ001>004-019>022-054>056-160300-
NEBRASKA PANHANDLE

CITY           SKY/WX    TMP DP  RH WIND       PRES   REMARKS
SCOTTSBLUFF    CLEAR     58  47  66 SE10      30.17S
ALLIANCE       CLEAR     52  44  74 SE8       30.19S
CHADRON        CLEAR     59  45  59 S6        30.14S
KIMBALL        CLEAR     57  48  72 S9        30.22S
SIDNEY         CLEAR     56  45  66 S10       30.23F
$$

NEZ057>060-069>072-079>082-160300-
SOUTHWEST NEBRASKA

CITY           SKY/WX    TMP DP  RH WIND       PRES   REMARKS
NORTH PLATTE   CLEAR     49  44  83 E6        30.24R
IMPERIAL       CLEAR     55  46  71 SE5       30.25R
LEXINGTON      CLEAR     54  45  72 SE5       30.25R
MCCOOK         CLEAR     55  45  68 E6        30.25R
OGALLALA       CLEAR     56  47  71 S3        30.23S
$$

NEZ005>010-023>029-035>040-094-160300-
NORTH CENTRAL NEBRASKA

CITY           SKY/WX    TMP DP  RH WIND       PRES   REMARKS
VALENTINE      CLEAR     54  40  59 SE8       30.21S
AINSWORTH      HAZE      48  41  76 SE6       30.23S VSB 1/4
BROKEN BOW     CLEAR     46  43  89 CALM      30.24S
O`NEILL        CLEAR     52  44  74 SE3       30.25R
ORD            CLEAR     48  44  86 CALM      30.24R
THEDFORD       CLEAR     54  41  63 SE6       30.24R
$$

NEZ041-046>049-061>064-073>077-083>087-160300-
SOUTH CENTRAL NEBRASKA

CITY           SKY/WX    TMP DP  RH WIND       PRES   REMARKS
GRAND ISLAND   CLEAR     51  45  79 E3        30.26R
AURORA         CLEAR     49  46  88 CALM      30.26R
HASTINGS       CLEAR     54  44  69 E5        30.25S
HEBRON         CLEAR     52  45  79 CALM      30.25R
HOLDREGE       CLEAR     52  43  72 CALM      30.25R
KEARNEY *      CLEAR     54  43  66 E5        30.26R
YORK           CLEAR     50  46  87 E6        30.26R
$$

NEZ011>018-030>034-042>045-160300-
NORTHEAST NEBRASKA

CITY           SKY/WX    TMP DP  RH WIND       PRES   REMARKS
NORFOLK        CLEAR     48  43  82 SE5       30.26R
ALBION         CLEAR     47  42  82 CALM      30.26R
BLAIR          CLEAR     55  45  71 CALM      30.25R
COLUMBUS *     CLEAR     48  45  87 CALM      30.27R
FREMONT        CLEAR     51  45  79 CALM      30.26R
TEKAMAH        CLEAR     50  47  89 CALM      30.25R
WAYNE          CLEAR     46  44  93 CALM      30.26R
$$

NEZ050>053-065>068-078-088>093-160300-
SOUTHEAST NEBRASKA

CITY           SKY/WX    TMP DP  RH WIND       PRES   REMARKS
LINCOLN        CLEAR     51  44  77 N5        30.26R
OMAHA EPPLEY   CLEAR     53  48  83 CALM      30.26R
BEATRICE       CLEAR     51  46  82 NE5       30.25R
FALLS CITY     CLEAR     54  48  80 NE6       30.24R
NEBRASKA CITY  CLEAR     52  41  67 CALM      30.26R
PLATTSMOUTH    CLEAR     53  45  73 CALM      30.25R
$$

NEZ044-045-051>053-067-160300-
OMAHA AREA

CITY           SKY/WX    TMP DP  RH WIND       PRES   REMARKS
OMAHA EPPLEY   CLEAR     53  48  83 CALM      30.26R
BLAIR          CLEAR     55  45  71 CALM      30.25R
FREMONT        CLEAR     51  45  79 CALM      30.26R
MILLARD        CLEAR     53  48  84 CALM      30.25R
OFFUTT AFB     CLEAR     49  49  99 CALM      30.25R
PLATTSMOUTH    CLEAR     53  45  73 CALM      30.25R
WAHOO          FAIR      50  46  84 N3        30.25R
$$



USA.gov is the U.S. government's official web portal to all federal, state and local government web resources and services.